TimeCST,TemperatureF,Dew PointF,Humidity,Sea Level PressureIn,VisibilityMPH,Wind Direction,Wind SpeedMPH,Gust SpeedMPH,PrecipitationIn,Events,Conditions,WindDirDegrees,DateUTC
12:15 AM,51.8,35.6,54,30.22,10.0,South,6.9,-,N/A,,Clear,170,2012-11-19 06:15:00
12:35 AM,53.6,33.8,47,30.22,10.0,South,5.8,-,N/A,,Clear,180,2012-11-19 06:35:00
12:55 AM,53.6,35.6,51,30.21,10.0,South,6.9,-,N/A,,Clear,170,2012-11-19 06:55:00
1:35 AM,53.6,33.8,47,30.21,10.0,South,8.1,-,N/A,,Partly Cloudy,170,2012-11-19 07:35:00
2:15 AM,53.6,33.8,47,30.21,10.0,South,6.9,-,N/A,,Overcast,180,2012-11-19 08:15:00
2:35 AM,53.6,35.6,51,30.22,10.0,South,6.9,-,N/A,,Overcast,190,2012-11-19 08:35:00
2:55 AM,51.8,37.4,58,30.23,10.0,SSW,5.8,-,N/A,,Overcast,200,2012-11-19 08:55:00
3:35 AM,50.0,41.0,71,30.23,10.0,South,4.6,-,N/A,,Overcast,180,2012-11-19 09:35:00
3:55 AM,48.2,42.8,82,30.22,10.0,SSE,4.6,-,0.06,,Overcast,160,2012-11-19 09:55:00
4:16 AM,48.2,42.8,82,30.22,10.0,SSE,4.6,-,N/A,,Overcast,160,2012-11-19 10:16:00
4:35 AM,48.2,42.8,82,30.22,10.0,SE,5.8,-,0.01,,Overcast,140,2012-11-19 10:35:00
5:16 AM,48.2,42.8,82,30.22,10.0,SSE,6.9,-,0.01,,Overcast,160,2012-11-19 11:16:00
5:35 AM,48.2,42.8,82,30.21,10.0,SSE,6.9,-,0.02,,Overcast,160,2012-11-19 11:35:00
5:55 AM,48.2,42.8,82,30.21,9.0,SSE,6.9,-,0.02,,Overcast,150,2012-11-19 11:55:00
6:35 AM,48.2,42.8,82,30.20,10.0,SE,9.2,-,0.03,,Overcast,140,2012-11-19 12:35:00
6:55 AM,48.2,42.8,82,30.21,10.0,SSE,6.9,-,0.03,,Overcast,150,2012-11-19 12:55:00
7:35 AM,48.2,42.8,82,30.21,9.0,SSE,5.8,-,0.01,,Overcast,150,2012-11-19 13:35:00
7:55 AM,48.2,42.8,82,30.21,10.0,SE,8.1,-,0.01,,Overcast,140,2012-11-19 13:55:00
8:15 AM,48.2,42.8,82,30.21,10.0,SSE,8.1,-,N/A,,Overcast,160,2012-11-19 14:15:00
8:55 AM,50.0,42.8,76,30.21,10.0,SSE,9.2,-,N/A,,Overcast,160,2012-11-19 14:55:00
9:15 AM,51.8,42.8,71,30.21,10.0,South,9.2,-,N/A,,Overcast,170,2012-11-19 15:15:00
9:35 AM,51.8,42.8,71,30.21,10.0,South,6.9,-,N/A,,Overcast,170,2012-11-19 15:35:00
10:15 AM,55.4,42.8,63,30.20,10.0,South,9.2,-,N/A,,Overcast,180,2012-11-19 16:15:00
10:35 AM,55.4,42.8,63,30.20,10.0,South,9.2,-,N/A,,Overcast,170,2012-11-19 16:35:00
11:15 AM,57.2,41.0,55,30.19,10.0,South,10.4,-,N/A,,Overcast,190,2012-11-19 17:15:00
11:35 AM,60.8,42.8,52,30.18,10.0,South,12.7,18.4,N/A,,Mostly Cloudy,190,2012-11-19 17:35:00
12:15 PM,62.6,44.6,52,30.16,10.0,SSW,13.8,18.4,N/A,,Clear,210,2012-11-19 18:15:00
12:35 PM,62.6,44.6,52,30.16,10.0,South,9.2,-,N/A,,Scattered Clouds,190,2012-11-19 18:35:00
12:55 PM,62.6,44.6,52,30.16,10.0,South,11.5,16.1,N/A,,Overcast,190,2012-11-19 18:55:00
1:16 PM,62.6,44.6,52,30.16,10.0,SSW,10.4,-,N/A,,Overcast,200,2012-11-19 19:16:00
1:35 PM,62.6,44.6,52,30.15,10.0,SSW,11.5,-,N/A,,Scattered Clouds,210,2012-11-19 19:35:00
2:16 PM,62.6,44.6,52,30.14,10.0,South,10.4,-,N/A,,Mostly Cloudy,190,2012-11-19 20:16:00
2:35 PM,62.6,44.6,52,30.13,10.0,SSW,9.2,-,N/A,,Mostly Cloudy,200,2012-11-19 20:35:00
2:55 PM,62.6,44.6,52,30.13,10.0,South,8.1,-,N/A,,Clear,190,2012-11-19 20:55:00
3:35 PM,60.8,44.6,55,30.13,10.0,South,10.4,-,N/A,,Clear,190,2012-11-19 21:35:00
3:55 PM,60.8,44.6,55,30.13,10.0,SSW,5.8,-,N/A,,Clear,200,2012-11-19 21:55:00
4:15 PM,60.8,44.6,55,30.13,10.0,SSW,6.9,-,N/A,,Clear,210,2012-11-19 22:15:00
4:35 PM,59.0,44.6,59,30.14,10.0,SSW,5.8,-,N/A,,Clear,210,2012-11-19 22:35:00
4:55 PM,59.0,44.6,59,30.14,10.0,SSW,6.9,-,N/A,,Clear,210,2012-11-19 22:55:00
5:15 PM,57.2,44.6,63,30.13,10.0,South,6.9,-,N/A,,Clear,190,2012-11-19 23:15:00
5:35 PM,57.2,42.8,59,30.14,10.0,Calm,Calm,-,N/A,,Clear,0,2012-11-19 23:35:00
5:55 PM,55.4,42.8,63,30.15,10.0,Calm,Calm,-,N/A,,Clear,0,2012-11-19 23:55:00
6:16 PM,53.6,42.8,67,30.15,10.0,South,4.6,-,N/A,,Clear,170,2012-11-20 00:16:00
6:35 PM,53.6,42.8,67,30.15,10.0,South,6.9,-,N/A,,Clear,170,2012-11-20 00:35:00
6:55 PM,53.6,42.8,67,30.15,10.0,South,3.5,-,N/A,,Clear,190,2012-11-20 00:55:00
7:35 PM,53.6,42.8,67,30.16,10.0,South,3.5,-,N/A,,Clear,190,2012-11-20 01:35:00
7:55 PM,51.8,41.0,67,30.16,10.0,South,5.8,-,N/A,,Clear,170,2012-11-20 01:55:00
8:35 PM,51.8,42.8,71,30.16,10.0,South,4.6,-,N/A,,Clear,190,2012-11-20 02:35:00
8:55 PM,51.8,42.8,71,30.17,10.0,South,4.6,-,N/A,,Clear,190,2012-11-20 02:55:00
9:15 PM,48.2,41.0,76,30.16,10.0,South,3.5,-,N/A,,Clear,190,2012-11-20 03:15:00
9:35 PM,48.2,39.2,71,30.16,10.0,South,3.5,-,N/A,,Clear,180,2012-11-20 03:35:00
9:55 PM,48.2,41.0,76,30.15,10.0,South,5.8,-,N/A,,Clear,190,2012-11-20 03:55:00
10:15 PM,48.2,41.0,76,30.15,10.0,South,3.5,-,N/A,,Clear,190,2012-11-20 04:15:00
10:55 PM,48.2,39.2,71,30.15,10.0,South,3.5,-,N/A,,Clear,190,2012-11-20 04:55:00
11:15 PM,46.4,41.0,81,30.15,10.0,South,4.6,-,N/A,,Clear,190,2012-11-20 05:15:00
11:35 PM,46.4,39.2,76,30.16,10.0,Calm,Calm,-,N/A,,Clear,0,2012-11-20 05:35:00
11:55 PM,46.4,39.2,76,30.15,10.0,SSW,3.5,-,N/A,,Clear,200,2012-11-20 05:55:00